map of KIN home
Great Circle Mapper logo
KIN - Airport
Location
City:  Kingston, Jamaica
Name:Norman Manley International Airport
ICAO:MKJP
IATA:KIN

Details
Type:Airport (Aerodrome, Airfield)
Use:Public/Civil, International (customs port of entry)
Latitude:1756'08"N (17.935667)
Longitude:7647'15"W (-76.787499)
Datum:WGS 1984
Elevation:10 ft (3 m)
Variation:7.40W (WMM2015 magnetic declination)
-0.11 annual change
Runways:1
Longest:8900 × 150 ft (2713 × 45.5 m), paved

Time
Time Zone:UTC-5
Local Time:

Weather
METAR:MKJP 270200Z 14008KT 9999 SCT020 FEW022CB 30/24 Q1011
TAF:MKJP 262315Z 2700/2724 13010KT 9999 FEW020 FEW022CB PROB40
TEMPO 2706/2710 8000 TSRA SCT020 SCT022CB
TEMPO 2718/2722 7000 TSRA BKN018 SCT022CB

Related Locations
Nearby:
Farthest:XCH: 11891 mi / 19136 km
Christmas Island, CX

Find:

   beyond  
but within

Other Information
Maps:
NOTAMs:
Links:
Sources:

  
flag of Jamaica   

Airport Diagram

Airport diagram for KIN

Airport diagram (OBSOLETE) from NGA

Sectional Chart

Flight Planning
at skyvector.com

Satellite Image

Google Maps Satellite view

 

Copyright © 2004-2016 Karl L. Swartz. All rights reserved.
The Great Circle Mapper name and logo are trademarks of the Great Circle Mapper.
All other trademarks mentioned herein belong to their respective owners.
Please see credits for attibutions and further copyright information.

  Follow gcmap on Facebook Follow gcmap on Twitter Follow gcmap on Google+ GCmap on LinkedIn

hCard Microformat

Geo Microformat